AUA29 HKJK-LOWW

Flight info

Callsign AUA29
Flight time N/A
Altitude 38000
Route ETORU1A KAMAS UA727 LOV UT946 ANTAX/N0487F370 A727 AMATO UA727 EPSIX/N0482F390 A727 KUTOP UA727 AVONO/N0485F380 DCT NUBAR/N0484F400 A727 SML L613 TANSA UL617 SIT UL607 KEA UL617 MAKED DCT LONTA UM749 UDVAR DCT NANER DCT BABIT DCT NATEX NATEX2W
Aircraft B772/H-SDE2E3FGHIJ5LORVWXY/LB1D1

Departure

Time N/A
Airport Jomo Kenyatta International Airport (HKJK)

Arrival

Time 2026-04-26 15:30
Airport Vienna International Airport (LOWW)
Time Latitude Longitude Altitude Speed Heading
2026-04-26 12:58 32.74359 27.01107 39967 ft 473 kts 347°
2026-04-26 12:58 32.80894 27.00122 39965 ft 474 kts 347°
2026-04-26 12:59 32.87446 26.99134 39959 ft 475 kts 347°
2026-04-26 12:59 32.93965 26.98150 39961 ft 476 kts 347°
2026-04-26 13:00 33.00544 26.97152 39964 ft 476 kts 347°
2026-04-26 13:00 33.07112 26.96143 39961 ft 476 kts 347°
2026-04-26 13:01 33.13685 26.95129 39960 ft 476 kts 348°
2026-04-26 13:01 33.20197 26.94125 39954 ft 475 kts 348°
2026-04-26 13:02 33.26744 26.93115 39959 ft 474 kts 348°
2026-04-26 13:02 33.33278 26.92104 39958 ft 473 kts 348°
2026-04-26 13:03 33.39802 26.91095 39956 ft 472 kts 348°
2026-04-26 13:03 33.46264 26.90092 39957 ft 471 kts 348°
2026-04-26 13:04 33.52759 26.89084 39954 ft 470 kts 348°
2026-04-26 13:04 33.59241 26.88076 39958 ft 470 kts 348°
2026-04-26 13:05 33.65721 26.87066 39955 ft 469 kts 348°
2026-04-26 13:05 33.72189 26.86057 39960 ft 469 kts 348°
2026-04-26 13:06 33.78613 26.85053 39961 ft 469 kts 349°
2026-04-26 13:06 33.85084 26.84040 39955 ft 469 kts 349°
2026-04-26 13:07 33.91550 26.83027 39956 ft 469 kts 349°
2026-04-26 13:07 33.97983 26.81815 39965 ft 466 kts 342°
2026-04-26 13:08 34.04069 26.79418 39959 ft 462 kts 333°
2026-04-26 13:08 34.09859 26.76093 39950 ft 461 kts 331°
2026-04-26 13:09 34.15616 26.72673 39968 ft 461 kts 331°
2026-04-26 13:09 34.21390 26.69271 39972 ft 462 kts 331°
2026-04-26 13:10 34.27137 26.65911 39972 ft 462 kts 332°
2026-04-26 13:10 34.32926 26.62531 39962 ft 462 kts 332°
2026-04-26 13:11 34.38710 26.59148 39962 ft 461 kts 332°
2026-04-26 13:11 34.44490 26.55761 39960 ft 461 kts 332°
2026-04-26 13:12 34.50254 26.52377 39961 ft 460 kts 332°
2026-04-26 13:12 34.55977 26.49013 39962 ft 460 kts 332°
2026-04-26 13:13 34.61730 26.45625 39961 ft 459 kts 332°
2026-04-26 13:13 34.67475 26.42237 39959 ft 459 kts 332°
2026-04-26 13:14 34.73213 26.38848 39959 ft 459 kts 332°
2026-04-26 13:14 34.78920 26.35472 39960 ft 459 kts 332°
2026-04-26 13:15 34.84664 26.32068 39960 ft 460 kts 332°
2026-04-26 13:15 34.89444 26.29231 39964 ft 460 kts 332°
2026-04-26 13:16 34.96179 26.25229 39968 ft 461 kts 332°
2026-04-26 13:16 35.01905 26.21820 39971 ft 462 kts 332°
2026-04-26 13:17 35.10425 26.16346 39978 ft 461 kts 328°
2026-04-26 13:18 35.18657 26.10250 39986 ft 462 kts 328°
2026-04-26 13:19 35.26860 26.04183 39982 ft 461 kts 328°
2026-04-26 13:19 35.32345 26.00141 39990 ft 460 kts 328°
2026-04-26 13:20 35.37815 25.96108 39992 ft 458 kts 328°
2026-04-26 13:20 35.43271 25.92077 39994 ft 457 kts 328°
2026-04-26 13:21 35.48710 25.88052 39995 ft 456 kts 328°
2026-04-26 13:21 35.54099 25.84057 39996 ft 455 kts 328°
2026-04-26 13:22 35.59511 25.80039 39996 ft 454 kts 328°
2026-04-26 13:22 35.64805 25.76102 39998 ft 453 kts 328°
2026-04-26 13:23 35.70154 25.72118 39999 ft 453 kts 328°
2026-04-26 13:23 35.75544 25.68097 39998 ft 453 kts 328°
2026-04-26 13:24 35.80897 25.64097 40001 ft 453 kts 328°
2026-04-26 13:24 35.86284 25.60066 40000 ft 453 kts 328°
2026-04-26 13:25 35.91672 25.56026 40003 ft 453 kts 328°
2026-04-26 13:25 35.97063 25.51978 40000 ft 454 kts 328°
2026-04-26 13:26 36.02417 25.47951 40007 ft 454 kts 328°
2026-04-26 13:26 36.07814 25.43886 40000 ft 454 kts 328°
2026-04-26 13:27 36.13208 25.39817 39999 ft 454 kts 328°
2026-04-26 13:27 36.18605 25.35746 40001 ft 454 kts 328°
2026-04-26 13:28 36.23965 25.31697 39998 ft 454 kts 328°
2026-04-26 13:28 36.29356 25.27617 39999 ft 454 kts 328°
2026-04-26 13:29 36.34743 25.23532 39998 ft 454 kts 328°
2026-04-26 13:29 36.40123 25.19446 40002 ft 453 kts 328°
2026-04-26 13:30 36.45503 25.15354 40005 ft 453 kts 328°
2026-04-26 13:30 36.50837 25.11290 40009 ft 453 kts 328°
2026-04-26 13:31 36.56207 25.07191 40011 ft 452 kts 328°
2026-04-26 13:31 36.61568 25.03092 40013 ft 452 kts 328°
2026-04-26 13:32 36.66922 24.98992 40007 ft 452 kts 328°
2026-04-26 13:32 36.72277 24.94881 40012 ft 452 kts 328°
2026-04-26 13:33 36.77577 24.90780 40008 ft 452 kts 328°
2026-04-26 13:33 36.82917 24.86636 40005 ft 452 kts 328°
2026-04-26 13:34 36.88257 24.82490 40005 ft 452 kts 328°
2026-04-26 13:34 36.93564 24.78366 40023 ft 452 kts 328°
2026-04-26 13:35 36.98914 24.74229 40026 ft 452 kts 328°
2026-04-26 13:35 37.04268 24.70090 40011 ft 452 kts 328°
2026-04-26 13:36 37.09620 24.65941 40013 ft 453 kts 328°
2026-04-26 13:36 37.14975 24.61780 40011 ft 453 kts 328°
2026-04-26 13:37 37.20288 24.57644 40009 ft 453 kts 328°
2026-04-26 13:37 37.25633 24.53477 40011 ft 453 kts 328°
2026-04-26 13:38 37.30979 24.49302 40018 ft 452 kts 328°
2026-04-26 13:38 37.36324 24.45121 40017 ft 452 kts 328°
2026-04-26 13:39 37.41663 24.40936 40016 ft 452 kts 328°
2026-04-26 13:39 37.46961 24.36777 40004 ft 452 kts 328°
2026-04-26 13:40 37.52293 24.32586 40013 ft 452 kts 328°
2026-04-26 13:40 37.57883 24.28988 40025 ft 452 kts 337°
2026-04-26 13:41 37.63848 24.26441 40004 ft 453 kts 341°
2026-04-26 13:41 37.69803 24.24049 40023 ft 452 kts 341°
2026-04-26 13:42 37.75792 24.21616 40019 ft 452 kts 341°
2026-04-26 13:42 37.81774 24.19154 40012 ft 452 kts 341°
2026-04-26 13:43 37.87748 24.16679 40011 ft 452 kts 341°
2026-04-26 13:43 37.93685 24.14214 40012 ft 452 kts 340°
2026-04-26 13:44 37.99663 24.11728 40025 ft 452 kts 340°
2026-04-26 13:44 38.05223 24.09414 40028 ft 452 kts 340°
2026-04-26 13:45 38.11200 24.06921 40031 ft 452 kts 340°
2026-04-26 13:45 38.17180 24.04424 40026 ft 452 kts 340°
2026-04-26 13:46 38.23122 24.01938 40007 ft 453 kts 340°
2026-04-26 13:46 38.29101 23.99431 40011 ft 453 kts 340°
2026-04-26 13:47 38.35084 23.96919 40014 ft 452 kts 340°
2026-04-26 13:47 38.41063 23.94404 40014 ft 452 kts 340°
2026-04-26 13:48 38.47042 23.91886 40017 ft 453 kts 340°
2026-04-26 13:48 38.52981 23.89378 40031 ft 453 kts 340°
2026-04-26 13:49 38.58967 23.86848 40019 ft 453 kts 340°
2026-04-26 13:49 38.64950 23.84313 40030 ft 453 kts 340°
2026-04-26 13:50 38.70932 23.81775 40017 ft 453 kts 340°
2026-04-26 13:50 38.76865 23.79253 40025 ft 452 kts 340°
2026-04-26 13:51 38.82843 23.76708 40026 ft 452 kts 340°
2026-04-26 13:51 38.88816 23.74160 40023 ft 452 kts 340°
2026-04-26 13:52 38.94779 23.71612 40014 ft 452 kts 340°
2026-04-26 13:52 39.00705 23.69075 40009 ft 452 kts 340°
2026-04-26 13:53 39.06674 23.66515 40004 ft 452 kts 340°
2026-04-26 13:53 39.12641 23.63951 39998 ft 452 kts 340°
2026-04-26 13:54 39.18602 23.61384 39995 ft 452 kts 339°
2026-04-26 13:54 39.24502 23.58550 39992 ft 452 kts 337°
2026-04-26 13:55 39.32292 23.54747 40001 ft 452 kts 338°
2026-04-26 13:56 39.42123 23.49998 40012 ft 452 kts 337°
2026-04-26 13:56 39.47972 23.47159 40014 ft 452 kts 337°
2026-04-26 13:57 39.53859 23.44295 40021 ft 452 kts 337°
2026-04-26 13:57 39.59750 23.41424 40017 ft 452 kts 337°
2026-04-26 13:58 39.65642 23.38548 40013 ft 452 kts 337°
2026-04-26 13:58 39.71533 23.35667 40008 ft 452 kts 337°
2026-04-26 13:59 39.77430 23.32792 40011 ft 453 kts 337°
2026-04-26 13:59 39.83293 23.29951 40007 ft 453 kts 337°
2026-04-26 14:00 39.95085 23.24201 40007 ft 453 kts 337°
2026-04-26 14:01 40.00978 23.21297 40005 ft 453 kts 337°
2026-04-26 14:01 40.06830 23.18409 39999 ft 452 kts 336°
2026-04-26 14:02 40.12716 23.15502 40008 ft 452 kts 336°
2026-04-26 14:02 40.18599 23.12590 40006 ft 452 kts 336°
2026-04-26 14:03 40.24484 23.09672 39993 ft 452 kts 336°
2026-04-26 14:03 40.30369 23.06746 39981 ft 452 kts 336°
2026-04-26 14:04 40.36215 23.03836 39974 ft 452 kts 336°
2026-04-26 14:04 40.42096 23.00902 39972 ft 453 kts 336°
2026-04-26 14:05 40.47879 22.97681 39968 ft 450 kts 330°
2026-04-26 14:05 40.53402 22.93811 39963 ft 450 kts 329°
2026-04-26 14:06 40.58905 22.89900 39969 ft 449 kts 329°
2026-04-26 14:06 40.64380 22.86037 39971 ft 449 kts 329°
2026-04-26 14:07 40.69897 22.82159 39975 ft 449 kts 329°
2026-04-26 14:07 40.75411 22.78281 39974 ft 450 kts 329°
2026-04-26 14:08 40.80934 22.74389 39978 ft 450 kts 329°
2026-04-26 14:08 40.86452 22.70491 39977 ft 450 kts 329°
2026-04-26 14:09 40.91929 22.66614 39979 ft 450 kts 329°
2026-04-26 14:09 40.97446 22.62702 39976 ft 450 kts 329°
2026-04-26 14:10 41.02956 22.58786 39982 ft 449 kts 329°
2026-04-26 14:10 41.08463 22.54866 39982 ft 449 kts 329°
2026-04-26 14:11 41.16277 22.48239 39992 ft 445 kts 319°
2026-04-26 14:11 41.21084 22.43063 39993 ft 445 kts 319°
2026-04-26 14:12 41.25886 22.37866 39991 ft 445 kts 319°
2026-04-26 14:12 41.30707 22.32679 39998 ft 446 kts 319°
2026-04-26 14:13 41.37925 22.24925 40004 ft 447 kts 319°
2026-04-26 14:14 41.42757 22.19726 40002 ft 447 kts 319°
2026-04-26 14:14 41.47591 22.14513 40003 ft 446 kts 319°
2026-04-26 14:15 41.52379 22.09338 40003 ft 446 kts 319°
2026-04-26 14:15 41.57190 22.04128 40000 ft 445 kts 319°
2026-04-26 14:16 41.61997 21.98912 39998 ft 445 kts 319°
2026-04-26 14:16 41.66804 21.93687 39999 ft 445 kts 319°
2026-04-26 14:17 41.71603 21.88459 40011 ft 445 kts 319°
2026-04-26 14:17 41.76370 21.83255 40011 ft 445 kts 319°
2026-04-26 14:18 41.81160 21.78016 40019 ft 445 kts 319°
2026-04-26 14:18 41.85953 21.72763 40026 ft 445 kts 319°
2026-04-26 14:19 41.89938 21.68388 40022 ft 445 kts 319°
2026-04-26 14:19 41.94734 21.63113 40020 ft 446 kts 319°
2026-04-26 14:20 42.00301 21.56976 40026 ft 445 kts 319°
2026-04-26 14:20 42.04285 21.52575 40021 ft 446 kts 319°
2026-04-26 14:21 42.09073 21.47277 40031 ft 446 kts 319°
2026-04-26 14:21 42.13974 21.42143 40018 ft 449 kts 326°
2026-04-26 14:22 42.19573 21.38375 40030 ft 453 kts 336°
2026-04-26 14:22 42.25646 21.35952 40040 ft 456 kts 342°
2026-04-26 14:23 42.31790 21.33790 40053 ft 456 kts 342°
2026-04-26 14:23 42.37884 21.31609 40055 ft 456 kts 342°
2026-04-26 14:24 42.44006 21.29365 40065 ft 456 kts 342°
2026-04-26 14:24 42.50129 21.27098 40066 ft 456 kts 342°
2026-04-26 14:25 42.56246 21.24829 40078 ft 456 kts 342°
2026-04-26 14:25 42.62321 21.22572 40074 ft 456 kts 342°
2026-04-26 14:26 42.68439 21.20296 40079 ft 456 kts 342°
2026-04-26 14:26 42.74562 21.18012 40076 ft 456 kts 342°
2026-04-26 14:27 42.80688 21.15723 40079 ft 456 kts 342°
2026-04-26 14:27 42.86770 21.13447 40078 ft 457 kts 342°
2026-04-26 14:28 42.92894 21.11150 40090 ft 456 kts 342°
2026-04-26 14:28 42.99006 21.08850 40088 ft 456 kts 342°
2026-04-26 14:29 43.05122 21.06547 40093 ft 456 kts 342°
2026-04-26 14:29 43.11205 21.04083 40096 ft 455 kts 337°
2026-04-26 14:30 43.16868 21.00452 40107 ft 452 kts 330°
2026-04-26 14:30 43.22425 20.96384 40104 ft 453 kts 330°
2026-04-26 14:31 43.27991 20.92315 40104 ft 454 kts 330°
2026-04-26 14:31 43.33574 20.88263 40102 ft 454 kts 330°
2026-04-26 14:32 43.39161 20.84218 40106 ft 454 kts 330°
2026-04-26 14:32 43.44713 20.80189 40105 ft 454 kts 330°
2026-04-26 14:33 43.50287 20.76136 40107 ft 454 kts 330°
2026-04-26 14:33 43.55870 20.72064 40099 ft 454 kts 330°
2026-04-26 14:34 43.61454 20.67985 40094 ft 454 kts 330°
2026-04-26 14:34 43.67039 20.63896 40082 ft 455 kts 330°
2026-04-26 14:35 43.72590 20.59823 40076 ft 454 kts 330°
2026-04-26 14:35 43.78168 20.55723 40075 ft 454 kts 330°
2026-04-26 14:36 43.83749 20.51609 40074 ft 454 kts 330°
2026-04-26 14:36 43.89317 20.47499 40080 ft 453 kts 330°
2026-04-26 14:37 43.94856 20.43427 40106 ft 453 kts 330°
2026-04-26 14:37 44.00440 20.39355 40105 ft 453 kts 330°
2026-04-26 14:38 44.06023 20.35278 40109 ft 453 kts 330°
2026-04-26 14:38 44.11596 20.31193 40117 ft 453 kts 330°
2026-04-26 14:39 44.17160 20.27102 40112 ft 452 kts 330°
2026-04-26 14:39 44.22693 20.23025 40116 ft 453 kts 330°
2026-04-26 14:40 44.28261 20.18913 40112 ft 453 kts 330°
2026-04-26 14:40 44.33830 20.14792 40113 ft 453 kts 330°
2026-04-26 14:41 44.39387 20.10670 40113 ft 453 kts 330°
2026-04-26 14:41 44.44953 20.06534 40111 ft 453 kts 330°
2026-04-26 14:42 44.50478 20.02419 40115 ft 452 kts 330°
2026-04-26 14:42 44.52354 20.01020 40115 ft 452 kts 330°
2026-04-26 14:43 44.62147 19.93698 40116 ft 452 kts 330°
2026-04-26 14:43 44.67433 19.89734 40118 ft 452 kts 330°
2026-04-26 14:44 44.72877 19.85643 40115 ft 452 kts 330°
2026-04-26 14:44 44.78385 19.81495 40119 ft 452 kts 330°
2026-04-26 14:45 44.83927 19.77312 40122 ft 452 kts 330°
2026-04-26 14:45 44.89468 19.73121 40122 ft 452 kts 330°
2026-04-26 14:46 44.95007 19.68922 40124 ft 452 kts 330°
2026-04-26 14:46 45.00505 19.64745 40125 ft 452 kts 330°
2026-04-26 14:47 45.06045 19.60527 40128 ft 452 kts 330°
2026-04-26 14:47 45.11585 19.56300 40130 ft 452 kts 330°
2026-04-26 14:48 45.17123 19.52064 40128 ft 453 kts 330°
2026-04-26 14:48 45.22628 19.47844 40131 ft 453 kts 329°
2026-04-26 14:49 45.28174 19.43584 40127 ft 453 kts 329°
2026-04-26 14:49 45.33709 19.39322 40130 ft 453 kts 329°
2026-04-26 14:50 45.39252 19.35044 40129 ft 453 kts 329°
2026-04-26 14:50 45.44795 19.30758 40134 ft 453 kts 329°
2026-04-26 14:51 45.50296 19.26494 40133 ft 453 kts 329°
2026-04-26 14:51 45.55832 19.22193 40136 ft 453 kts 329°
2026-04-26 14:52 45.61080 19.18106 40136 ft 453 kts 329°
2026-04-26 14:53 45.64445 19.15481 40133 ft 453 kts 329°
2026-04-26 14:54 45.69977 19.11158 40138 ft 453 kts 329°
2026-04-26 14:54 45.75507 19.06828 40140 ft 453 kts 329°
2026-04-26 14:55 45.81034 19.02488 40143 ft 453 kts 329°
2026-04-26 14:55 45.86522 18.98170 40146 ft 453 kts 329°
2026-04-26 14:56 45.92047 18.93814 40150 ft 453 kts 329°
2026-04-26 14:56 45.97597 18.89513 40145 ft 453 kts 330°
2026-04-26 14:57 46.03179 18.85295 40148 ft 453 kts 330°
2026-04-26 14:57 46.08726 18.81097 40148 ft 453 kts 330°
2026-04-26 14:58 46.14296 18.76854 40153 ft 453 kts 330°
2026-04-26 14:58 46.19870 18.72591 40153 ft 453 kts 330°
2026-04-26 14:59 46.25437 18.68320 40154 ft 453 kts 330°
2026-04-26 14:59 46.30970 18.64067 40164 ft 453 kts 329°
2026-04-26 15:00 46.36539 18.59776 40163 ft 454 kts 329°
2026-04-26 15:00 46.42114 18.55471 40165 ft 454 kts 329°
2026-04-26 15:01 46.47683 18.51160 40167 ft 454 kts 329°
2026-04-26 15:01 46.53250 18.46841 40160 ft 454 kts 329°
2026-04-26 15:02 46.58774 18.42546 40175 ft 453 kts 329°
2026-04-26 15:02 46.64333 18.38211 40180 ft 453 kts 329°
2026-04-26 15:03 46.69890 18.33869 40164 ft 453 kts 329°
2026-04-26 15:03 46.75434 18.29527 40134 ft 453 kts 329°
2026-04-26 15:03 46.78221 18.27341 39633 ft 451 kts 329°
2026-04-26 15:04 46.80939 18.25209 39014 ft 439 kts 329°
2026-04-26 15:04 46.83599 18.23121 38277 ft 431 kts 329°
2026-04-26 15:04 46.86223 18.21056 37499 ft 426 kts 329°
2026-04-26 15:04 46.88818 18.19011 36728 ft 421 kts 329°
2026-04-26 15:05 46.91346 18.17016 35983 ft 415 kts 329°
2026-04-26 15:05 46.93055 18.15666 35507 ft 412 kts 329°
2026-04-26 15:05 46.96361 18.13052 34564 ft 405 kts 328°
2026-04-26 15:05 46.98824 18.11103 33825 ft 399 kts 328°
2026-04-26 15:06 47.01250 18.09180 33038 ft 394 kts 328°
2026-04-26 15:06 47.03644 18.07281 32287 ft 388 kts 329°
2026-04-26 15:06 47.06003 18.05407 31557 ft 383 kts 329°
2026-04-26 15:06 47.08329 18.03558 30847 ft 378 kts 329°
2026-04-26 15:07 47.12882 17.99932 29417 ft 368 kts 329°
2026-04-26 15:07 47.15163 17.98111 28701 ft 380 kts 329°
2026-04-26 15:07 47.17466 17.96270 27993 ft 379 kts 329°
2026-04-26 15:08 47.19757 17.94441 27284 ft 374 kts 329°
2026-04-26 15:08 47.22041 17.92615 26607 ft 374 kts 330°
2026-04-26 15:08 47.24318 17.90793 25940 ft 371 kts 330°
2026-04-26 15:08 47.26576 17.88985 25291 ft 366 kts 330°
2026-04-26 15:09 47.28800 17.87202 24658 ft 362 kts 330°
2026-04-26 15:09 47.30988 17.85446 24141 ft 357 kts 330°
2026-04-26 15:09 47.33197 17.83670 23634 ft 364 kts 330°
2026-04-26 15:09 47.35404 17.81896 23027 ft 355 kts 330°
2026-04-26 15:10 47.37504 17.80207 22432 ft 342 kts 330°
2026-04-26 15:10 47.38906 17.79078 22040 ft 339 kts 330°
2026-04-26 15:10 47.41654 17.76861 21291 ft 342 kts 330°
2026-04-26 15:10 47.43742 17.75174 20751 ft 342 kts 330°
2026-04-26 15:11 47.45820 17.73495 20224 ft 338 kts 330°
2026-04-26 15:11 47.47876 17.71831 19704 ft 335 kts 330°
2026-04-26 15:11 47.49914 17.70182 19175 ft 333 kts 331°
2026-04-26 15:11 47.51936 17.68544 18655 ft 330 kts 331°
2026-04-26 15:12 47.53945 17.66916 18098 ft 328 kts 331°
2026-04-26 15:12 47.55935 17.65302 17518 ft 325 kts 331°
2026-04-26 15:12 47.57913 17.63695 16954 ft 323 kts 330°
2026-04-26 15:12 47.59848 17.62122 16457 ft 320 kts 330°
2026-04-26 15:13 47.61792 17.60540 15951 ft 317 kts 330°
2026-04-26 15:13 47.63716 17.58973 15464 ft 315 kts 330°
2026-04-26 15:13 47.65632 17.57411 14980 ft 313 kts 330°
2026-04-26 15:13 47.67535 17.55859 14506 ft 312 kts 330°
2026-04-26 15:14 47.69431 17.54312 14022 ft 310 kts 330°
2026-04-26 15:14 47.71318 17.52763 13521 ft 308 kts 328°
2026-04-26 15:14 47.72926 17.50716 12974 ft 306 kts 308°
2026-04-26 15:14 47.73912 17.47924 12467 ft 307 kts 291°
2026-04-26 15:15 47.74360 17.44876 11974 ft 309 kts 276°
2026-04-26 15:15 47.74231 17.41688 11484 ft 309 kts 268°
2026-04-26 15:15 47.73979 17.38523 10999 ft 307 kts 267°
2026-04-26 15:15 47.73722 17.35383 10515 ft 305 kts 267°
2026-04-26 15:16 47.73475 17.32261 10035 ft 303 kts 268°
2026-04-26 15:16 47.73238 17.29167 9513 ft 300 kts 268°
2026-04-26 15:16 47.73009 17.26099 8968 ft 297 kts 268°
2026-04-26 15:16 47.72786 17.23043 8597 ft 299 kts 268°
2026-04-26 15:17 47.72564 17.19991 8275 ft 294 kts 268°
2026-04-26 15:17 47.72421 17.18011 8046 ft 290 kts 268°
2026-04-26 15:17 47.72137 17.14121 7603 ft 283 kts 269°
2026-04-26 15:17 47.71960 17.11236 7271 ft 277 kts 271°
2026-04-26 15:18 47.71844 17.08404 6970 ft 273 kts 271°
2026-04-26 15:18 47.71736 17.05612 6660 ft 269 kts 271°
2026-04-26 15:18 47.71625 17.02854 6319 ft 266 kts 271°
2026-04-26 15:18 47.71512 17.00128 6062 ft 261 kts 271°
2026-04-26 15:19 47.71397 16.97498 6008 ft 252 kts 271°
2026-04-26 15:19 47.71287 16.94956 5991 ft 248 kts 271°
2026-04-26 15:19 47.71174 16.92407 5992 ft 248 kts 271°
2026-04-26 15:19 47.70987 16.89857 5985 ft 252 kts 264°
2026-04-26 15:20 47.70587 16.87298 5985 ft 256 kts 262°
2026-04-26 15:20 47.70159 16.84715 5983 ft 258 kts 262°
2026-04-26 15:20 47.69743 16.82127 5989 ft 258 kts 262°
2026-04-26 15:20 47.69495 16.79559 5970 ft 245 kts 279°
2026-04-26 15:21 47.70075 16.77257 5981 ft 240 kts 309°
2026-04-26 15:21 47.71391 16.75718 5836 ft 244 kts 331°
2026-04-26 15:21 47.72890 16.74665 5680 ft 239 kts 334°
2026-04-26 15:21 47.74410 16.73747 5482 ft 233 kts 338°
2026-04-26 15:22 47.75930 16.73003 5287 ft 227 kts 341°
2026-04-26 15:22 47.77418 16.72348 5115 ft 219 kts 342°
2026-04-26 15:22 47.78861 16.71737 5048 ft 214 kts 343°
2026-04-26 15:22 47.80284 16.71141 4995 ft 212 kts 343°
2026-04-26 15:23 47.81696 16.70551 4984 ft 210 kts 343°
2026-04-26 15:23 47.83106 16.69960 4995 ft 211 kts 343°
2026-04-26 15:23 47.84529 16.69365 5002 ft 213 kts 343°
2026-04-26 15:23 47.85935 16.68779 5039 ft 212 kts 342°
2026-04-26 15:24 47.87352 16.68183 4978 ft 211 kts 342°
2026-04-26 15:24 47.88749 16.67599 4690 ft 202 kts 343°
2026-04-26 15:24 47.90061 16.67049 4433 ft 191 kts 343°
2026-04-26 15:24 47.91324 16.66521 4185 ft 187 kts 343°
2026-04-26 15:25 47.92574 16.65995 3917 ft 185 kts 344°
2026-04-26 15:25 47.93390 16.65649 3762 ft 183 kts 344°
2026-04-26 15:25 47.95015 16.64966 3446 ft 180 kts 345°
2026-04-26 15:25 47.96193 16.64472 3203 ft 171 kts 345°
2026-04-26 15:26 47.97287 16.64013 2978 ft 155 kts 345°
2026-04-26 15:26 47.98255 16.63603 2805 ft 138 kts 346°
2026-04-26 15:26 47.99145 16.63228 2609 ft 126 kts 346°
2026-04-26 15:26 47.99954 16.62889 2446 ft 118 kts 347°
2026-04-26 15:27 48.00738 16.62573 2292 ft 117 kts 346°
2026-04-26 15:27 48.01538 16.62227 2138 ft 120 kts 346°
2026-04-26 15:27 48.02356 16.61877 1970 ft 123 kts 346°
2026-04-26 15:27 48.03175 16.61532 1804 ft 122 kts 345°
2026-04-26 15:28 48.03994 16.61186 1621 ft 123 kts 343°
2026-04-26 15:28 48.04823 16.60836 1444 ft 123 kts 345°
2026-04-26 15:28 48.05635 16.60494 1281 ft 119 kts 345°
2026-04-26 15:28 48.06427 16.60160 1120 ft 119 kts 347°
2026-04-26 15:29 48.07227 16.59829 960 ft 121 kts 348°
2026-04-26 15:29 48.08032 16.59486 787 ft 119 kts 347°
2026-04-26 15:29 48.09587 16.58829 626 ft 99 kts 345°
2026-04-26 15:30 48.10328 16.58516 626 ft 21 kts 344°
2026-04-26 15:30 48.10470 16.58456 621 ft 21 kts 343°
2026-04-26 15:30 48.10610 16.58388 620 ft 21 kts 338°
2026-04-26 15:31 48.10734 16.58273 629 ft 21 kts 319°
2026-04-26 15:31 48.10905 16.58015 625 ft 14 kts 316°
2026-04-26 15:31 48.10981 16.57962 625 ft 8 kts 343°
2026-04-26 15:32 48.11053 16.57930 625 ft 12 kts 344°
2026-04-26 15:32 48.11139 16.57774 621 ft 12 kts 296°
2026-04-26 15:32 48.11175 16.57661 626 ft 12 kts 296°
2026-04-26 15:33 48.11212 16.57549 623 ft 12 kts 296°
2026-04-26 15:33 48.11249 16.57436 624 ft 12 kts 296°
2026-04-26 15:33 48.11285 16.57324 621 ft 12 kts 296°
2026-04-26 15:33 48.11321 16.57214 626 ft 11 kts 296°
2026-04-26 15:34 48.11353 16.57114 621 ft 10 kts 296°
2026-04-26 15:34 48.11372 16.57058 629 ft 6 kts 296°
2026-04-26 15:34 48.11383 16.57024 629 ft 2 kts 296°
2026-04-26 15:34 48.11388 16.57008 629 ft 2 kts 296°
2026-04-26 15:35 48.11404 16.56958 623 ft 7 kts 296°
2026-04-26 15:35 48.11429 16.56892 622 ft 7 kts 311°
2026-04-26 15:35 48.11475 16.56882 624 ft 7 kts 15°
2026-04-26 15:35 48.11514 16.56907 622 ft 6 kts 23°
2026-04-26 15:36 48.11555 16.56923 624 ft 6 kts
2026-04-26 15:36 48.11579 16.56902 625 ft 4 kts 312°
2026-04-26 15:36 48.11601 16.56882 623 ft 4 kts 357°
2026-04-26 15:36 48.11628 16.56893 622 ft 4 kts 21°
2026-04-26 15:37 48.11651 16.56908 621 ft 3 kts 25°
2026-04-26 15:37 48.11665 16.56919 625 ft 2 kts 26°
2026-04-26 15:37 48.11674 16.56925 629 ft 0 kts 26°